Simultaneous Nadir Overpasses (SNOs) Predictions

Prediction of SNOs between TERRA and METOP-C Satellite Orbit:

Table of predicted SNOs for the next 14.0 days since TLE Epoch: 1/11/2020
Index Date (TERRA) Time (TERRA) Lat,Lon (TERRA) SZA (TERRA ) Date (METOP-C) Time (METOP-C) Lat,Lon (METOP-C) SZA (METOP-C ) Distance(km) Time Diff (sec)
1 01/11/2020 20:47:06 81.27, -85.05 105.44 01/11/2020 20:45:53 81.27, -84.92 105.42 2.23 73
2 01/11/2020 21:36:32 -81.29, 82.79 74.55 01/11/2020 21:36:33 -81.28, 82.67 74.56 2.14 1
3 01/11/2020 22:25:59 81.28,-109.74 105.43 01/11/2020 22:27:12 81.28,-109.57 105.48 3.00 73
4 01/14/2020 17:10:48 -81.26, 148.85 75.10 01/14/2020 17:10:23 -81.27, 148.75 75.11 1.86 25
5 01/14/2020 18:00:14 81.27, -43.33 104.93 01/14/2020 18:01:01 81.28, -43.20 104.97 2.45 47
6 01/17/2020 12:45:02 -81.27,-144.66 75.63 01/17/2020 12:44:11 -81.27,-144.79 75.67 2.29 51
7 01/17/2020 13:34:28 81.28, 23.12 104.38 01/17/2020 13:34:49 81.28, 23.18 104.40 1.01 21
8 01/20/2020 09:08:43 81.28, 89.64 103.80 01/20/2020 09:08:38 81.28, 89.56 103.79 1.31 5
9 01/20/2020 09:58:10 -81.28,-102.80 76.23 01/20/2020 09:59:19 -81.28,-102.99 76.21 3.18 69
10 01/23/2020 04:42:59 81.27, 155.82 103.12 01/23/2020 04:42:27 81.27, 155.95 103.12 2.28 32




NCC Satellite Simultaneous Nadir Overpasses (SNOs) Prediction Service
